Flag for France Weather past 2 weeks in Montpellier, France

43 °F


Feels Like: 38 °F
Forecast: 33 / 57 °F
Wind: 8 mph from Northwest

Location: Montpellier Airport

Current Time: Dec 1, 2015 at 4:53:32 AM

Latest Report: Dec 1, 2015 at 4:00 AM

Visibility: 10 mi

Pressure: 30.45 "Hg

Humidity: 81%

Dew point: 37 °F

Location of MontpellierLocation

Historic Weather in Montpellier — Graph


Montpellier temperature yesterday

Maximum temperature yesterday: 64 °F (at 1:00 PM)
Minimum temperature yesterday: 39 °F (at 8:00 AM)
Average temperature yesterday: 51 °F

Past Weeks' High & Low Weather Summary

High73 °F (Nov 18, 1:30 PM)94% (Nov 19, 4:30 AM)30.51 "Hg (Nov 19, 4:30 AM)
Low32 °F (Nov 24, 6:30 AM)32% (Nov 23, 2:00 PM)29.56 "Hg (Nov 21, 4:30 AM)
Average51 °F61%30.09 "Hg
* Reported Nov 16 3:00 AM — Dec 1 3:30 AM, Montpellier, Weather by CustomWeather, © 2015

Note: Actual official high and low records may vary slightly from our data, if they occured in-between our weather recording intervals... More about our weather records


Montpellier weather history for previous 24 hours

Time TempWeatherWind HumidityBarometerVisibility
3:30 AM
Tue, Dec 1
43 °FClear.8 mph81%30.45 "Hg10 mi
3:00 AM45 °FClear.6 mph76%30.48 "Hg10 mi
1:30 AM45 °FClear.8 mph76%30.48 "Hg10 mi
1:00 AM45 °FClear.8 mph76%30.48 "Hg10 mi
12:30 AM46 °FClear.8 mph71%30.48 "Hg10 mi
12:00 AM43 °FClear.7 mph76%30.48 "Hg10 mi
11:30 PM
Mon, Nov 30
45 °FPassing clouds.3 mph76%30.48 "HgN/A
11:00 PM43 °FPassing clouds.3 mph81%30.48 "HgN/A
10:30 PM43 °FClear.2 mph87%30.48 "Hg10 mi
10:00 PM43 °FClear.2 mph76%30.48 "Hg10 mi
9:30 PM46 °FClear.No wind76%30.45 "Hg10 mi
9:00 PM46 °FClear.No wind82%30.45 "Hg10 mi
8:30 PM48 °FClear.No wind71%30.45 "Hg10 mi
8:00 PM52 °FPassing clouds.3 mph62%30.45 "HgN/A
7:30 PM55 °FClear.7 mph59%30.45 "Hg10 mi
7:00 PM55 °FClear.10 mph59%30.45 "Hg10 mi
6:30 PM55 °FPassing clouds.6 mph59%30.45 "HgN/A
6:00 PM57 °FClear.8 mph55%30.42 "Hg10 mi
5:30 PM57 °FClear.5 mph55%30.42 "Hg10 mi
5:07 PM57 °FSunny.2 mph55%30.42 "Hg10 mi
5:06 PM57 °FSunny.2 mph55%30.42 "Hg10 mi
4:00 PM61 °FSunny.3 mph55%30.42 "Hg10 mi
3:30 PM61 °FSunny.5 mph55%30.42 "Hg10 mi
3:00 PM61 °FSunny.6 mph59%30.42 "Hg10 mi
2:30 PM61 °FSunny.7 mph63%30.42 "Hg10 mi
2:00 PM63 °FSunny.6 mph59%30.45 "Hg10 mi
1:30 PM63 °FSunny.6 mph52%30.45 "Hg10 mi
1:00 PM64 °FSunny.2 mph49%30.45 "Hg10 mi
12:30 PM61 °FSunny.3 mph52%30.48 "Hg10 mi
12:00 PM61 °FSunny.3 mph55%30.48 "Hg10 mi
11:30 AM59 °FSunny.5 mph63%30.51 "Hg10 mi
11:00 AM57 °FPassing clouds.5 mph67%30.51 "HgN/A
10:30 AM55 °FPassing clouds.5 mph72%30.51 "HgN/A
10:00 AM52 °FPassing clouds.3 mph77%30.51 "HgN/A
9:30 AM48 °FSunny.2 mph87%30.51 "Hg10 mi
9:00 AM43 °FSunny.2 mph93%30.51 "Hg10 mi
8:30 AM41 °FSunny.3 mph87%30.51 "Hg10 mi
8:00 AM39 °FSunny.2 mph93%30.48 "Hg10 mi
7:36 AM41 °FClear.No wind81%30.48 "Hg10 mi
7:00 AM43 °FClear.3 mph81%30.48 "Hg10 mi
6:30 AM46 °FClear.2 mph82%30.48 "Hg10 mi
6:00 AM46 °FClear.6 mph82%30.48 "Hg10 mi
5:30 AM45 °FClear.9 mph87%30.48 "Hg10 mi
4:30 AM43 °FClear.5 mph87%30.48 "Hg10 mi
4:00 AM41 °FClear.3 mph81%30.48 "Hg10 mi
Weather by CustomWeather, © 2015

See weather overviewHow to use our weather pages